CZ-6A DEB, 56248

Orbit data source: Space-Track

CZ-6A DEB, 56248 is space debris in SSO originally from a launch on Fri, 11 Nov 2022 UTC launched from the Taiyaun Space Center, China (TSC). Debris objects in space refer to the collection of defunct objects orbiting the Earth. Examples of debris include non-operational satellites, rocket bodies, and fragments generated from explosions, collisions, or faulty payload assembly.

Loading next visibility...
Identifier
56248, 2022-151ABQ
Orbit
SSO
Country
Flag of CNCN / PRC
Related business
Manufacturer
SAST
Mission
Spacecraft
Bus & Motor
Unknown
Mass
Unknown
Launch date (UTC)
2022-11-11 (4 years ago)
Launch vehicle
Unknown
Launch site
Taiyaun Space Center, China (TSC)
Object type
Payload
Rocket body
Debris
Shape & HBR
Unknown shape, 0.1 m
Radar Cross Section
Medium (>0.1 m² and <1 m²)

Expand to show TLE details & history
Last TLE update: 2 days ago

TLE from 2 days ago
0 CZ-6A DEB
1 56248U 22151ABQ 26171.17694404  .00000298  00000-0  21385-3 0  9999
2 56248  98.8670 155.5507 0075384   8.8401 351.4074 14.03095568166559
Epoch: 2026-06-20T04:14Z
TLE epoch observation values (Epoch: 2026-06-20T04:14:47.965Z)
Latitude
0.00004°
Longitude
-176.54448°
Altitude
831.857 km
Speed
7.465 km/s
True Right ascension
10h 22m 12s
True Declination
0° 00' 00"
Sunlit
Object was in daylight at epoch
Visualization orbit readout
Latitude
Unknown
Longitude
Unknown
Altitude
Unknown
Speed
Unknown
Apparent Right ascension
Unknown
Apparent Declination
Unknown
Sunlit
N/A
Visualization observer readout
Local Sidereal Time
21:40:46
Azimuth
Unknown
Elevation
Unknown
Doppler factor
Unknown
Orbital elements
Apogee altitude
935.001 km
Perigee altitude
825.567 km
Semi-major axis
7,258.421 km
Eccentricity
0.00754
Inclination
98.867°
RAAN
155.5507°
Arg. of periapsis
8.8401°
True anomaly
351.27712°
Mean anomaly
351.4074°
Eccentric anomaly
351.34238°
Mean motion
3.50978 °/min
Orbital period
102.57 mins
BSTAR
0.00021385
Loading maneuver chart data...
Computing Atmospheric mass density...
Loading historical data...
Loading historical data...
Loading historical data...
Loading historical data...
Loading historical data...
Loading historical data...
Loading historical data...

Documentation

Showing up to 5 results
|